Location: Morehouse Lake Observatory
(43.3628°N, 74.6770°W)
Time: 02:03:02
(UTC-04:00)

N. Korean satellite - Visible Passes

Search period start: 24 October 2019 00:00
Search period end: 03 November 2019 00:00
Orbit: 455 x 508 km, 97.2° (Epoch: 23 October)

Date Brightness Start Highest point End Pass type
(mag) Time Alt. Az. Time Alt. Az. Time Alt. Az.
24 Oct 10.1 19:09:58 10° WSW 19:11:41 13° W 19:13:23 10° WNW visible
25 Oct 8.1 06:33:03 10° NNE 06:36:33 41° E 06:40:04 10° S visible
25 Oct 9.1 18:43:14 10° SSW 18:46:10 26° W 18:49:10 10° NW visible
26 Oct 9.6 06:08:17 10° NE 06:11:08 21° E 06:13:59 10° SE visible
27 Oct 10.5 05:44:45 10° ENE 05:45:37 11° E 05:46:28 10° ESE visible
28 Oct 7.0 06:50:21 10° NNE 06:54:01 72° ESE 06:57:43 10° S visible
28 Oct 9.9 19:01:26 10° SW 19:03:42 16° W 19:05:59 10° NW visible
29 Oct 8.6 06:25:16 10° NNE 06:28:39 34° E 06:32:02 10° SSE visible
29 Oct 8.6 18:35:04 10° SSW 18:38:13 33° W 18:41:26 10° NNW visible
30 Oct 9.9 06:00:40 10° NE 06:03:11 17° E 06:05:43 10° SE visible
31 Oct 10.5 19:21:03 10° W 19:21:15 10° W 19:21:27 10° W visible
01 Nov 7.4 06:42:26 10° NNE 06:46:07 57° E 06:49:46 10° S visible
01 Nov 9.6 18:53:02 10° SW 18:55:41 20° W 18:58:24 10° NW visible
02 Nov 9.0 06:17:28 10° NE 06:20:42 27° E 06:23:55 10° SSE visible
02 Nov 8.0 18:26:54 10° S 18:30:13 42° W 18:33:37 10° NNW visible
